EW9629 Weather Reports


time (UTC)temp
F
wind
direction
speed
knots
gust
knots
rain 1hr
in
rain 24hr
in
rain mn
in
humidity
%
barometer
mb
20260906114555 80 335 0.0 1.7 0.00 0.00 0.00 96 1010.8
20260906113059 80 286 0.0 1.7 0.00 0.00 0.00 96 1010.6
20260906111553 80 315 0.0 1.7 0.00 0.00 0.00 96 1010.6
20260906110053 80 0 0.0 0.9 0.00 0.00 0.00 96 1010.4
20260906104616 80 0 0.0 1.7 0.00 0.00 0.00 96 1010.3
20260906103053 80 0 0.0 1.7 0.00 0.00 0.00 96 1010.1
20260906101557 80 0 0.0 1.7 0.00 0.00 0.00 96 1010.1
20260906100054 80 284 0.0 1.7 0.00 0.00 0.00 96 1010.0
20260906094637 80 0 0.0 1.7 0.00 0.00 0.00 95 1009.9
20260906093105 80 0 0.0 1.7 0.00 0.00 0.00 95 1009.8
20260906091609 81 350 0.0 1.7 0.00 0.00 0.00 95 1009.7
20260906084557 81 219 0.0 1.7 0.00 0.00 0.00 95 1010.0
20260906083101 81 319 0.0 1.7 0.00 0.00 0.00 95 1010.0
20260906081603 81 0 0.0 0.0 0.00 0.00 0.00 95 1010.0
20260906074601 81 0 0.0 0.0 0.00 0.00 0.00 94 1010.1
20260906073102 81 0 0.0 1.7 0.00 0.00 0.00 94 1010.1
20260906071553 82 0 0.0 1.7 0.00 0.00 0.00 94 1010.3
20260906070103 82 0 0.0 1.7 0.00 0.00 0.00 94 1010.1
20260906064558 82 0 0.0 1.7 0.00 0.00 0.00 94 1010.2
20260906063057 82 0 0.0 1.7 0.00 0.00 0.00 94 1010.1
20260906061600 82 0 0.0 1.7 0.00 0.00 0.00 93 1010.1
20260906060056 83 0 0.0 2.6 0.00 0.00 0.00 93 1010.1
20260906054601 83 229 0.0 2.6 0.00 0.00 0.00 93 1010.2
20260906053055 83 281 0.0 4.3 0.00 0.00 0.00 93 1010.4
20260906051552 83 261 0.0 3.5 0.00 0.00 0.00 93 1010.7
20260906050107 83 286 0.0 1.7 0.00 0.00 0.00 92 1010.7
20260906044557 83 216 0.0 3.5 0.00 0.00 0.00 92 1010.9
20260906043056 83 213 0.0 2.6 0.00 0.00 0.00 92 1011.0
20260906041554 83 281 0.9 3.5 0.00 0.00 0.00 92 1011.0
20260906040123 84 0 0.0 4.3 0.00 0.00 0.00 92 1011.2
20260906034604 84 147 0.0 3.5 0.00 0.00 0.00 91 1011.0
20260906033059 84 290 0.9 4.3 0.00 0.00 0.00 91 1011.3
20260906031604 84 0 0.0 3.5 0.00 0.00 0.00 91 1011.4
20260906030101 84 0 0.0 2.6 0.00 0.00 0.00 91 1011.3
20260906024603 84 0 0.0 3.5 0.00 0.00 0.00 91 1010.8
20260906023054 84 227 0.0 3.5 0.00 0.00 0.00 90 1010.6
20260906021604 84 0 0.0 3.5 0.00 0.00 0.00 90 1010.3
20260906020106 84 189 0.0 2.6 0.00 0.00 0.00 90 1010.6
20260906014559 84 0 0.0 2.6 0.00 0.00 0.00 90 1010.8
20260906013057 85 0 0.0 1.7 0.00 0.00 0.00 89 1010.9
20260906011558 85 0 0.0 1.7 0.00 0.00 0.00 88 1010.6
20260906010108 85 0 0.0 1.7 0.00 0.00 0.00 87 1010.6
20260906004558 85 0 0.0 1.7 0.00 0.00 0.00 87 1010.8
20260906003054 86 0 0.0 1.7 0.00 0.00 0.00 86 1011.1
20260906001605 86 0 0.0 1.7 0.00 0.00 0.00 86 1011.0
20260906000106 87 0 0.0 1.7 0.00 0.00 0.00 85 1011.0
20260905234603 87 0 0.0 1.7 0.00 0.00 0.00 83 1010.9
20260905233112 88 144 0.0 1.7 0.00 0.00 0.00 82 1010.7
20260905231559 89 0 0.0 1.7 0.00 0.00 0.00 81 1010.7
20260905230108 89 0 0.0 2.6 0.00 0.00 0.00 81 1010.5
20260905224609 90 0 0.0 4.3 0.00 0.00 0.00 80 1010.5
20260905223053 90 120 0.0 2.6 0.00 0.00 0.00 78 1010.5
20260905221600 91 136 0.9 4.3 0.00 0.00 0.00 76 1010.5
20260905220105 92 131 0.9 7.0 0.00 0.00 0.00 75 1010.7
20260905214600 92 0 0.0 5.2 0.00 0.00 0.00 75 1010.7
20260905213107 93 164 0.9 5.2 0.00 0.00 0.00 75 1010.6
20260905211554 93 0 0.9 4.3 0.00 0.00 0.00 74 1010.5
20260905210129 94 128 0.0 5.2 0.00 0.00 0.00 74 1010.4
20260905204603 93 313 0.0 2.6 0.00 0.00 0.00 75 1010.3
20260905203059 94 352 0.9 2.6 0.00 0.00 0.00 70 1010.1
20260905201609 94 0 0.9 3.5 0.00 0.00 0.00 68 1010.2
20260905200142 95 148 0.9 4.3 0.00 0.00 0.00 67 1010.1
20260905194604 95 0 0.0 4.3 0.00 0.00 0.00 67 1010.4
20260905193054 95 10 1.7 2.6 0.00 0.00 0.00 69 1010.5
20260905191555 95 175 0.0 3.5 0.00 0.00 0.00 71 1010.7
20260905190053 94 0 0.0 5.2 0.00 0.00 0.00 71 1011.1
20260905184611 95 0 0.9 4.3 0.00 0.00 0.00 69 1011.2
20260905183112 95 226 0.9 4.3 0.00 0.00 0.00 71 1011.6
20260905181556 95 121 0.0 6.1 0.00 0.00 0.00 71 1011.6
20260905180108 94 133 0.0 6.1 0.00 0.00 0.00 72 1011.9
20260905174601 94 133 0.9 3.5 0.00 0.00 0.00 72 1012.3
20260905173055 92 149 0.0 1.7 0.00 0.00 0.00 76 1012.7
20260905171604 92 148 0.0 4.3 0.00 0.00 0.00 74 1012.8
20260905170057 91 0 0.0 3.5 0.00 0.00 0.00 77 1012.9
20260905164556 89 240 0.0 2.6 0.00 0.00 0.00 80 1013.1
20260905163054 87 0 0.0 1.7 0.00 0.00 0.00 82 1013.4
20260905161555 89 0 0.0 3.5 0.00 0.00 0.00 78 1013.5
20260905160100 91 0 0.0 2.6 0.00 0.00 0.00 74 1013.6
20260905154558 91 125 0.0 3.5 0.00 0.06 0.00 73 1013.7
20260905153057 89 0 0.0 1.7 0.00 0.06 0.00 77 1013.6
20260905151604 89 0 0.0 3.5 0.00 0.06 0.00 78 1013.9
20260905150058 88 0 0.0 3.5 0.00 0.06 0.00 78 1014.0
20260905144558 87 330 0.9 2.6 0.00 0.06 0.00 80 1013.9
20260905143105 85 338 1.7 4.3 0.00 0.06 0.00 84 1014.0
20260905141601 84 20 1.7 4.3 0.00 0.06 0.00 87 1013.9
20260905134557 82 223 0.0 2.6 0.00 0.06 0.00 91 1014.0
20260905133102 82 0 0.0 2.6 0.00 0.06 0.00 93 1014.1
20260905131603 81 346 0.0 1.7 0.00 0.06 0.00 95 1014.1
20260905130055 81 339 0.0 2.6 0.00 0.06 0.00 96 1014.0
20260905124556 80 0 0.0 1.7 0.00 0.06 0.00 96 1013.9
20260905123056 80 0 0.0 0.0 0.00 0.06 0.00 97 1013.9
20260905121603 80 0 0.0 1.7 0.00 0.06 0.00 97 1014.1